sat.trackr.live / text

‹ back to catalog

STARLINK-1283

NORAD 45389 · 2020-019AF

PAYLOAD ACTIVE UNKNOWN

§ Identity

Operator
Country
US
Launch date
2020-03-18
Launch site
AFETR
Launch vehicle
Mass (kg)
RCS (m²)

Purposes: comms

External: N2YO · Heavens-Above · Gunter

§ Orbital elements

Epoch: 2026-09-20T06:00:02.000160Z

Period
90.58 min
Inclination
53.0261°
Eccentricity
0.0005333
Mean motion
15.89683796 rev/d
Perigee alt
299.6 km
Apogee alt
306.7 km
Semi-major
6,681.3 km
B*
5.6557e-4
RAAN
223.4901°
Arg perigee
79.3200°
Mean anomaly
170.6963°
Rev number
601

§ Raw data

STARLINK-12831 45389U 20019AF  26263.25002315  .00167555  21248-4  56557-3 0  99992 45389  53.0261 223.4901 0005333  79.3200 170.6963 15.89683796  6015

JSON: /api/v1/satellites/45389 · /tle

For live sub-satellite position, see the globe view (requires WebGL).

§ Visibility from observer

Set your observer location to see the next 7 days of passes ≥ 10°. The values pass through the URL so the page stays shareable.

No JS? Fill the form by hand. The geolocation button needs JavaScript.